COSMOS 252 DEB, 3557

Orbit data source: Space-Track

COSMOS 252 DEB, 3557 is space debris in LEO originally from a launch on Fri, 01 Nov 1968 UTC launched from the Tyuratam Missile And Space Complex (TTMTR). Debris objects in space refer to the collection of defunct objects orbiting the Earth. Examples of debris include non-operational satellites, rocket bodies, and fragments generated from explosions, collisions, or faulty payload assembly.

Loading next visibility...
Identifier
3557, 1968-097K
Orbit
LEO
Country
Flag of CISCIS
Related business
Manufacturer
Unknown
Mission
Spacecraft
Bus & Motor
Unknown
Mass
Unknown
Launch date (UTC)
1968-11-01 (57 years ago)
Launch vehicle
Unknown
Launch site
Tyuratam Missile And Space Complex (TTMTR)
Object type
Payload
Rocket body
Debris
Shape & HBR
Unknown shape, 0.2 m
Radar Cross Section
Small (<0.1 m²)

Expand to show TLE details & history
Last TLE update: 13 hours ago

TLE from 13 hours ago
0 COSMOS 252 DEB
1 03557U 68097K   25305.56520601  .00000815  00000-0  32048-3 0  9994
2 03557  62.3087 133.7440 0829284 199.2166 157.5767 13.23972895724063
Epoch: 2025-11-01T13:33Z
TLE epoch observation values (Epoch: 2025-11-01T13:33:53.799Z)
Latitude
-0.00004°
Longitude
-110.82365°
Altitude
1,756.629 km
Speed
6.725 km/s
True Right ascension
08h 54m 58s
True Declination
0° 00' 00"
Sunlit
Object was in daylight at epoch
Visualization orbit readout
Latitude
Unknown
Longitude
Unknown
Altitude
Unknown
Speed
Unknown
Apparent Right ascension
Unknown
Apparent Declination
Unknown
Sunlit
N/A
Visualization observer readout
Local Sidereal Time
22:22:53
Azimuth
Unknown
Elevation
Unknown
Doppler factor
Unknown
Orbital elements
Apogee altitude
1,794.384 km
Perigee altitude
542.715 km
Semi-major axis
7,546.687 km
Eccentricity
0.08293
Inclination
62.3087°
RAAN
133.744°
Arg. of periapsis
199.2166°
True anomaly
160.88181°
Mean anomaly
157.5767°
Eccentric anomaly
159.25937°
Mean motion
3.31062 °/min
Orbital period
108.74 mins
BSTAR
0.00032048
Loading maneuver chart data...
Computing Atmospheric mass density...

Documentation

Showing up to 5 results
|